User: anonymous   Login
Location: Unspecified
(0.0000°N, 0.0000°E)
Time: 20:04:33
(UTC+00:00)
Language:

STARLINK-32687 - Orbit

View from above orbital plane
View from above orbital plane
View from above satellite
View from above satellite

Ground track
Ground track

The orbit is defined by the following mean orbital elements,

1 63565U          26145.50235135 +.00000000 +00000-0 +49046-3 0 00006
2 63565  42.9959 196.9158 0001527 275.0371  85.0306 15.27588260    00
Epoch (UTC): 25 May 2026 12:03:23
Eccentricity: 0.0001527
inclination: 42.9959°
perigee height: 482 km
apogee height: 484 km
right ascension of ascending node: 196.9158°
argument of perigee: 275.0371°
revolutions per day: 15.27588260
mean anomaly at epoch: 85.0306°

The dashed part of the orbit path shows where the satellite is in the earth's shadow,  

DLR